Theta_e
328 328 324 322 323 324 326 326 325 326 327 327 326 327 327 326 327 327 328 330 331 331 332 332 331 331 331 331 331 332 333 334 333 334 334 335 335 334 332 332 333 332 333 332 330 332 330 329 329 329 329 329 328 328 328 328 328 327 326 326 324 322 324 327 328 329 326 323 324 324 324 326 328 327 327 327 328 329 330 330 330 328 328 329 328
326 326 324 322 324 326 328 328 328 327 329 330 331 331 330 330 328 327 328 330 330 331 332 333 333 332 331 331 332 332 333 333 331 332 333 333 334 333 332 332 332 331 332 332 331 330 328 328 328 327 329 328 328 329 328 329 328 327 326 325 327 325 322 326 327 327 323 321 320 319 322 323 325 325 326 327 329 329 328 327 325 328 329 328 329
324 325 325 323 325 327 328 327 328 329 329 330 331 331 332 331 330 329 329 330 331 331 331 331 333 334 332 330 332 332 335 335 335 333 334 333 333 334 331 331 330 330 331 331 330 330 329 328 327 328 327 328 328 328 328 328 327 327 326 325 324 326 325 328 327 326 322 324 323 320 317 317 320 321 324 325 326 326 328 327 328 330 329 329 328
322 323 324 324 326 327 326 326 328 329 329 330 331 331 332 332 331 330 330 331 332 332 333 333 334 333 331 331 333 333 331 334 335 335 334 334 333 334 330 330 330 329 329 330 330 330 329 328 328 328 328 329 327 327 327 327 327 327 326 326 325 322 323 324 328 324 326 322 317 317 317 318 314 317 320 323 325 324 325 326 328 328 328 328 329
321 322 323 323 324 325 326 327 329 329 329 329 330 331 332 333 333 332 331 331 333 334 333 333 333 331 330 331 332 331 332 332 332 331 333 334 333 331 330 331 331 331 330 329 330 328 329 328 328 328 329 329 329 327 327 327 327 327 327 326 325 324 322 324 326 325 325 327 321 317 315 314 315 318 320 320 324 324 325 325 326 326 327 327 327
322 322 322 323 324 325 326 327 328 329 327 327 329 331 331 332 333 334 333 332 332 333 334 333 331 330 328 327 326 326 326 327 327 328 330 331 332 331 331 331 331 331 331 331 330 330 329 328 328 328 328 329 328 328 327 327 327 326 326 327 325 326 325 324 323 326 326 326 323 322 320 316 316 319 318 312 322 323 325 325 325 326 326 326 327
323 324 324 323 324 324 325 325 326 325 326 328 329 329 331 331 331 333 334 333 331 330 332 332 330 330 329 328 328 327 326 327 330 331 331 331 332 329 329 330 330 330 330 330 330 330 329 328 328 329 329 328 328 327 326 327 327 328 328 326 326 325 326 323 323 323 325 325 324 324 323 320 324 320 316 317 314 319 322 322 323 326 326 326 325
320 322 323 324 324 324 323 325 324 324 325 326 327 327 328 328 329 330 331 333 334 332 330 332 331 330 329 329 326 325 326 327 328 328 328 330 331 330 329 329 330 330 329 330 330 331 330 328 329 329 328 328 328 327 327 328 328 329 328 327 326 326 326 325 324 324 322 323 324 322 323 320 324 321 322 319 317 314 315 319 322 323 324 325 324
317 317 320 322 321 322 323 323 323 324 324 324 325 325 326 326 326 327 328 329 328 327 329 332 330 330 327 326 323 326 327 327 328 328 327 329 330 330 329 328 329 329 329 329 331 331 331 329 328 328 328 328 329 328 328 328 327 327 327 326 325 325 326 326 325 324 324 323 320 320 319 319 320 318 321 319 317 315 314 317 315 318 320 321 322
314 315 316 318 320 320 322 322 322 322 322 323 323 324 325 325 325 325 325 326 326 326 326 327 329 328 326 327 325 324 325 325 326 326 326 327 328 328 329 328 328 328 328 330 330 331 331 330 329 328 328 328 330 328 327 327 327 327 328 328 326 325 326 326 325 326 326 324 324 321 318 317 318 318 318 317 317 317 316 316 316 316 316 316 321
310 311 311 312 315 316 317 318 319 320 321 321 321 322 323 324 323 323 323 324 325 327 328 328 329 328 327 326 325 324 323 323 323 323 324 326 327 327 328 328 329 328 329 329 329 331 331 331 330 329 328 329 329 327 327 327 326 327 328 328 327 326 325 325 325 325 326 324 322 322 321 320 319 317 317 318 318 314 316 315 315 318 317 316 319
308 308 308 309 309 311 312 312 314 315 317 319 320 321 322 324 324 323 322 322 323 326 328 329 328 327 326 325 323 323 323 323 322 321 324 325 326 327 328 328 328 329 329 328 328 329 330 331 331 330 328 329 328 327 327 327 326 327 328 328 327 326 325 325 324 324 324 324 323 322 322 322 321 321 320 320 319 318 318 316 315 314 315 313 317
306 306 306 307 307 307 308 309 310 311 312 315 317 320 320 321 322 322 321 321 321 324 326 329 329 326 325 324 323 323 323 323 323 323 325 326 326 326 327 327 328 327 328 328 328 328 329 329 330 329 329 329 329 327 326 326 326 326 326 327 328 327 326 325 324 324 325 324 323 323 322 321 322 322 321 321 319 319 318 315 312 316 312 312 316
305 305 305 305 305 305 306 307 308 308 310 311 313 315 318 320 319 319 319 320 321 322 324 325 326 325 325 324 324 323 323 323 323 324 325 326 326 327 327 328 328 328 328 328 329 329 329 330 331 330 330 329 329 329 327 326 326 325 325 326 327 328 328 326 325 325 325 325 325 323 321 321 322 321 321 320 317 317 316 315 313 311 314 312 310
304 304 304 304 304 304 304 305 306 306 307 309 310 312 314 316 319 319 318 319 320 321 322 324 324 325 324 324 324 323 324 324 324 325 326 326 327 327 328 329 329 329 329 330 330 329 329 328 329 329 329 328 328 328 327 326 326 326 325 324 325 326 327 326 326 324 323 323 324 324 322 321 321 321 321 320 319 319 318 316 315 311 309 312 313
302 302 302 302 303 303 304 304 305 305 306 307 308 309 311 312 314 316 319 319 319 321 320 321 324 325 325 324 323 324 325 325 325 325 326 327 326 327 328 329 329 330 330 329 328 329 328 327 327 327 327 327 327 327 327 326 326 325 325 324 324 326 326 326 326 325 324 324 324 323 322 322 321 321 321 321 318 319 319 318 318 316 312 308 308
301 301 301 301 302 302 303 303 304 304 304 305 307 308 308 310 311 312 314 316 319 319 319 320 321 322 323 323 323 323 324 325 325 325 325 326 327 328 328 328 329 329 328 327 326 327 327 327 327 327 326 325 325 326 326 326 326 326 326 325 325 325 326 325 325 324 325 324 323 322 323 322 321 322 322 321 318 318 318 318 319 317 317 312 308
300 300 301 301 301 301 302 303 303 303 304 305 305 306 307 308 309 310 311 312 315 320 321 320 320 321 322 322 323 324 324 325 325 325 325 325 326 327 327 327 327 328 328 327 326 325 325 329 326 325 325 325 325 326 326 326 326 326 326 327 327 326 325 325 324 324 324 323 323 322 322 322 322 322 322 321 317 317 317 317 318 319 318 314 312
299 299 299 300 300 300 301 301 302 302 303 304 304 305 305 306 308 309 309 311 312 315 319 323 323 322 322 323 323 323 323 323 324 324 323 324 325 326 326 326 326 326 326 326 325 324 324 324 325 325 325 325 325 325 326 326 327 326 326 326 327 325 324 323 323 324 324 324 323 323 322 322 321 321 321 321 318 316 316 316 317 316 316 317 314
298 298 299 299 300 300 300 301 301 301 302 302 303 304 304 305 306 306 308 309 310 312 315 318 323 323 322 322 323 324 324 323 323 324 323 324 325 325 325 325 324 324 324 324 324 324 323 323 324 324 324 324 323 324 325 326 326 326 325 326 326 326 324 323 323 323 324 324 323 323 321 322 321 321 321 321 319 317 316 315 315 315 314 313 313
298 298 298 299 299 299 300 300 300 301 301 302 302 302 303 303 304 304 305 306 308 310 312 314 318 323 323 321 322 323 323 323 323 324 324 325 325 325 324 324 323 322 323 323 323 324 324 324 324 323 323 323 323 323 324 325 325 325 325 326 326 326 325 324 324 322 324 323 323 323 322 321 321 322 321 321 320 318 315 315 314 313 312 311 311
298 298 298 298 299 299 299 300 299 299 299 299 301 301 301 302 303 303 304 305 306 308 310 312 315 319 322 322 322 322 322 321 323 324 324 324 324 324 324 323 322 323 323 323 324 324 324 324 324 323 323 323 323 324 324 325 324 324 324 326 325 326 325 324 324 323 323 324 323 323 322 321 321 322 321 321 320 318 317 314 313 312 311 310 312
298 298 298 298 298 298 298 298 297 297 298 298 299 300 300 301 302 303 303 303 305 307 308 311 314 317 321 323 321 321 321 322 322 322 322 323 323 323 323 323 322 321 321 323 323 323 324 324 324 323 323 323 324 324 323 324 324 324 323 324 325 325 325 323 322 323 324 324 323 322 322 320 320 321 321 322 321 320 318 315 313 312 311 309 309
298 297 298 298 297 297 296 296 297 297 297 297 298 298 299 300 301 302 302 303 304 306 307 309 312 315 318 322 321 322 321 322 321 321 322 322 322 322 323 322 322 320 321 320 322 323 323 323 323 322 323 323 323 323 322 323 323 323 324 324 325 325 325 324 323 323 324 324 323 323 322 320 320 320 320 321 321 321 320 317 315 313 312 309 309
295 295 295 295 295 294 294 295 296 296 297 297 297 297 298 299 300 301 301 303 304 305 306 307 310 312 314 319 320 321 320 320 320 320 321 322 321 322 321 322 320 320 320 319 319 321 322 323 323 322 322 322 323 322 321 321 322 323 324 325 324 324 324 323 323 324 325 324 324 324 323 321 320 320 319 320 321 321 321 320 317 315 312 311 309
293 293 293 293 293 293 293 293 294 295 296 296 296 297 298 299 300 301 301 302 303 304 305 306 308 309 311 312 317 320 320 320 319 319 320 321 322 321 321 320 320 319 318 318 318 319 322 322 323 322 322 322 321 321 321 321 321 321 323 324 324 324 323 323 323 323 324 324 325 324 323 322 321 321 320 320 321 322 321 320 320 317 314 313 310
292 292 292 293 292 292 292 292 293 294 295 295 296 296 297 299 300 301 301 302 302 303 304 305 306 307 308 310 311 316 321 320 319 319 319 320 320 320 320 320 320 319 318 317 318 319 320 322 322 322 321 321 321 321 321 320 320 320 321 321 322 322 322 321 321 322 322 323 324 324 324 322 322 322 321 320 320 321 321 321 320 320 318 315 312
292 291 291 291 291 291 291 292 292 293 294 295 296 296 297 298 299 300 301 301 302 302 303 303 304 305 306 307 309 312 317 320 320 319 319 320 320 320 320 320 320 318 318 318 318 318 319 320 320 320 320 319 319 319 318 319 320 320 320 320 321 321 321 321 320 320 321 322 322 323 323 322 323 323 322 321 321 321 321 321 320 320 318 316 314
290 289 289 289 290 290 291 291 292 293 293 294 294 295 296 297 298 299 300 301 302 301 302 302 303 303 304 306 308 310 314 319 320 319 319 319 319 319 319 319 319 318 318 318 318 318 317 316 314 314 313 314 316 317 317 318 319 319 319 319 319 320 320 320 320 320 319 320 321 321 321 322 323 321 315 315 316 317 320 320 319 318 317 316 315
289 289 289 289 290 290 290 291 291 292 292 293 293 294 295 295 296 298 299 300 301 301 301 301 301 302 303 304 306 308 310 315 319 318 318 318 319 318 318 318 318 317 316 316 315 315 316 314 312 309 308 308 309 308 309 308 311 319 319 320 319 319 320 320 319 318 318 319 319 319 321 319 316 313 308 304 305 307 311 317 319 316 314 311 311
288 289 289 289 290 290 290 290 291 291 292 292 293 293 294 294 295 296 297 299 300 300 300 300 300 301 302 304 305 306 308 310 315 318 317 317 318 318 317 316 316 314 314 314 314 313 313 312 311 309 307 305 303 302 298 296 298 303 317 319 319 318 319 318 318 318 317 316 313 313 316 317 314 309 304 297 296 298 301 302 307 310 314 314 311
289 289 289 289 289 289 290 290 290 291 292 292 292 293 294 293 294 295 296 298 298 299 299 300 300 301 301 302 304 305 306 308 309 312 317 317 316 316 315 314 312 312 312 311 311 311 309 308 308 307 306 303 300 297 292 294 295 296 302 317 318 318 317 317 317 317 315 314 311 310 310 311 310 308 306 303 300 295 294 294 295 296 297 300 304
289 289 289 289 289 289 289 290 290 291 291 292 293 293 293 293 294 295 296 297 297 297 298 298 299 300 300 301 302 304 304 306 306 308 313 316 315 315 313 312 311 310 309 308 305 305 303 303 304 303 301 300 299 295 292 293 295 296 296 306 315 316 316 316 315 313 312 311 309 309 309 310 309 312 309 304 303 300 297 295 296 296 295 293 291
290 290 289 289 289 290 290 290 290 291 292 292 294 294 294 294 295 295 295 296 296 296 297 297 298 299 300 300 301 303 303 304 305 306 309 313 314 311 308 307 306 306 304 302 300 299 300 300 300 299 298 297 297 295 293 297 298 296 297 304 312 313 312 312 311 310 309 308 308 308 307 307 309 309 308 307 306 305 304 302 300 299 299 298 296
291 290 290 289 289 289 290 290 291 292 292 291 292 293 293 294 294 294 294 295 295 295 296 296 297 298 299 300 300 301 302 303 303 304 304 305 304 304 303 301 301 300 299 298 297 297 297 298 298 298 298 297 298 293 294 294 295 297 299 302 308 306 304 303 302 303 303 304 306 307 307 307 307 309 310 308 305 302 300 299 298 298 298 298 297
292 291 290 290 290 289 289 290 292 291 291 291 291 292 293 293 294 294 294 294 294 294 295 295 296 297 298 299 299 300 301 301 301 301 301 301 301 300 300 300 299 298 297 297 296 296 295 295 296 297 298 297 297 293 294 295 296 296 298 304 303 302 300 299 298 298 298 299 300 303 305 306 307 308 303 299 300 301 300 299 298 298 298 299 298
293 292 291 292 292 292 291 291 290 291 291 290 291 292 292 292 293 293 293 294 294 294 294 295 295 296 297 298 299 299 300 300 300 299 298 298 298 298 298 299 297 297 296 296 296 296 296 296 296 296 296 296 296 293 292 293 294 296 299 302 300 299 298 298 297 298 298 298 298 298 300 302 303 304 298 296 296 298 300 299 298 298 298 297 297
293 293 293 292 292 292 292 291 290 291 291 290 291 291 291 291 292 292 292 293 293 293 294 295 295 296 297 298 299 299 299 299 299 298 298 298 298 298 298 298 296 296 295 296 297 297 297 297 297 296 296 295 295 294 292 293 294 295 298 301 300 298 297 296 296 297 298 299 301 300 299 298 298 297 293 293 293 298 299 299 298 298 298 297 297
293 292 291 291 290 291 292 291 290 290 291 291 290 291 292 291 291 291 291 292 292 293 293 294 294 295 296 297 298 299 299 299 299 298 298 297 297 297 298 298 298 297 297 297 297 296 296 297 297 297 298 295 295 295 293 293 294 295 298 300 299 297 296 295 295 295 295 295 295 296 297 297 297 294 291 292 293 297 299 299 300 299 297 296 296
293 293 292 292 292 291 290 290 290 290 291 291 291 291 292 291 291 291 291 291 291 292 293 294 295 295 296 297 298 298 299 299 298 299 299 298 299 298 298 297 297 297 297 297 297 296 295 295 296 296 295 295 294 294 294 292 293 294 296 299 299 297 295 295 295 295 295 295 295 295 294 290 290 290 290 290 291 293 298 300 300 299 297 295 296
293 293 295 293 292 292 291 291 291 291 291 291 291 291 291 291 291 290 290 291 291 292 293 294 294 294 295 296 297 298 298 299 299 299 299 299 299 298 298 298 297 297 297 296 296 296 296 295 295 295 295 295 295 293 292 291 292 293 294 296 297 296 296 295 295 294 295 294 294 294 294 292 291 291 291 291 292 292 294 299 300 299 298 297 296
295 295 294 294 293 293 292 292 292 291 291 291 291 291 291 291 291 291 291 291 291 292 292 293 293 293 294 295 296 297 298 298 299 299 298 298 299 299 299 298 298 297 296 296 296 296 295 295 295 295 295 295 296 295 293 291 291 292 293 294 296 296 296 296 295 295 295 294 294 294 294 292 290 291 291 291 292 292 293 296 294 291 291 292 297
293 293 294 293 292 292 292 292 293 293 292 292 292 293 292 292 291 291 291 291 291 291 292 292 293 292 293 294 295 295 296 297 298 299 298 298 299 299 299 299 298 297 296 295 295 295 295 295 294 295 295 295 295 295 293 293 291 291 291 292 293 294 293 297 295 294 293 293 294 293 294 292 290 290 291 291 291 292 293 293 290 290 290 291 293
293 293 293 292 292 293 292 292 293 293 292 292 291 292 293 292 291 292 291 292 291 291 291 292 292 292 292 292 293 294 295 295 296 297 298 298 298 298 298 298 298 297 295 294 294 294 294 294 293 293 294 294 295 295 294 292 292 290 291 291 291 292 293 296 296 294 294 293 293 292 292 290 290 290 290 290 290 291 292 290 290 290 291 292 294
291 292 293 293 292 291 291 291 292 292 291 291 291 290 291 290 291 292 291 291 291 291 291 291 292 291 291 291 292 292 292 293 294 295 295 295 296 297 296 297 297 296 295 294 294 294 293 293 293 292 293 294 294 294 294 293 292 291 290 290 291 291 291 292 294 294 294 293 291 290 290 290 290 290 290 290 290 290 289 290 290 291 294 294 294
293 293 293 292 291 290 290 290 290 291 290 291 290 290 290 290 291 292 291 291 291 291 291 290 291 291 291 291 290 291 291 291 292 293 294 294 294 295 295 296 296 296 295 295 294 293 293 293 292 293 293 293 294 294 293 294 294 294 292 291 291 291 292 292 292 292 290 290 290 290 290 291 291 292 293 292 291 291 289 290 290 292 293 292 292
291 291 291 290 289 288 288 288 289 289 288 289 289 291 291 290 291 291 290 290 291 290 290 289 289 290 290 290 290 290 290 290 290 290 291 293 293 293 292 292 294 295 295 294 294 293 293 293 292 292 293 293 293 292 292 292 293 294 294 295 295 295 293 293 294 294 293 293 292 293 291 290 290 289 290 290 290 290 291 291 291 291 291 291 290
287 287 288 286 287 287 287 288 288 288 287 287 287 288 289 289 291 291 290 289 289 289 289 288 288 289 290 290 290 288 288 288 289 289 289 289 291 292 291 290 289 290 294 294 293 293 293 293 292 293 293 293 292 292 290 290 290 292 294 294 294 293 293 293 294 294 294 295 294 291 292 293 292 291 291 290 290 289 289 288 289 289 289 289 290
286 286 285 283 284 285 285 286 287 286 286 286 286 287 288 288 290 290 289 289 289 288 288 288 288 288 288 289 289 289 289 289 288 289 288 288 288 289 291 291 291 290 291 293 294 293 293 293 293 293 292 291 291 291 290 288 288 288 290 293 293 293 293 292 292 292 294 293 292 292 291 291 290 288 287 288 288 288 287 288 288 289 288 288 288
284 284 282 282 284 284 284 286 286 286 286 287 287 287 288 288 289 289 288 289 289 289 288 287 288 287 288 288 288 288 289 289 289 288 288 289 287 288 288 290 290 289 289 289 289 291 292 293 292 290 291 292 292 291 287 287 288 288 288 288 289 289 290 291 290 290 291 289 289 288 288 288 287 287 287 286 286 287 286 286 286 287 287 287 287
284 283 283 282 283 285 284 286 286 286 287 287 287 287 288 288 288 288 287 287 287 289 288 287 288 288 287 287 287 286 287 288 289 289 289 288 289 290 288 288 289 289 289 288 288 288 288 288 291 291 290 288 288 287 287 288 288 288 288 288 289 289 289 289 289 289 288 288 288 287 287 287 287 287 286 286 286 286 286 286 286 286 286 286 285
Wind_Speed
2 3 3 2 0 1 3 4 4 4 4 4 3 3 3 3 3 2 2 2 3 4 3 4 4 5 4 7 7 7 7 7 7 6 6 5 5 5 6 7 5 6 6 6 6 7 7 5 4 3 3 2 3 4 4 3 2 4 6 6 7 5 4 6 7 7 8 4 5 5 6 4 5 5 4 3 0 2 3 4 4 3 2 4 3
2 3 1 3 6 6 5 4 3 4 4 3 2 2 2 0 2 3 3 2 1 3 3 4 3 3 3 4 4 4 6 7 6 6 6 5 5 5 5 6 6 6 7 6 6 6 6 7 6 5 4 5 3 0 3 6 5 6 6 4 2 5 3 6 8 7 4 5 5 4 4 4 4 4 4 2 2 3 3 3 3 4 4 4 3
3 3 5 7 6 6 4 3 3 4 5 4 2 2 2 2 1 3 2 2 1 2 3 3 2 3 3 2 2 1 1 1 2 3 4 5 4 5 6 8 7 5 6 7 6 7 6 6 6 7 6 4 4 4 4 5 6 8 7 7 6 3 3 5 8 2 5 5 5 4 3 2 2 3 1 2 2 2 3 4 3 3 6 4 3
4 5 5 6 6 4 2 2 2 2 4 5 4 4 3 3 1 1 2 1 0 1 2 2 2 1 1 2 2 2 1 0 0 2 4 5 5 4 6 6 6 7 6 7 7 8 8 7 6 6 8 8 7 6 7 6 7 7 6 6 8 6 3 5 5 3 4 9 5 2 3 3 3 2 3 1 3 4 4 3 5 4 5 4 2
3 3 4 5 5 3 2 1 2 2 4 4 3 3 3 4 2 2 3 4 4 2 2 3 3 3 3 3 3 3 3 2 2 2 3 4 3 4 5 6 6 5 5 6 7 6 6 7 6 7 7 8 7 6 6 7 6 5 5 6 9 9 7 5 6 3 5 1 5 5 3 2 3 3 5 1 2 4 4 4 5 5 4 3 2
5 4 5 5 4 3 3 3 4 3 4 5 4 2 2 3 5 4 2 3 4 3 4 4 5 5 4 3 2 2 3 3 5 4 4 4 4 2 5 6 5 4 3 4 6 7 7 7 7 7 7 7 6 6 6 5 6 7 8 7 7 6 8 6 6 5 4 3 2 1 2 4 6 6 5 3 1 2 4 4 5 5 4 2 2
5 5 5 5 4 4 3 3 4 5 6 5 5 6 4 2 3 5 5 3 2 2 2 2 2 3 5 4 4 4 4 3 3 4 2 1 3 5 5 5 6 6 6 5 5 4 5 6 7 7 6 6 5 4 5 7 7 8 7 5 2 2 6 9 9 7 3 3 2 0 1 1 6 9 4 4 4 1 3 3 3 5 3 3 2
7 7 7 6 5 4 4 4 4 4 5 6 7 7 7 6 5 5 5 5 4 3 3 2 0 2 4 4 2 2 3 3 2 3 4 4 3 6 7 6 5 5 6 6 6 6 6 6 6 6 6 7 7 7 7 6 5 4 6 6 4 5 5 7 9 7 9 7 4 3 3 1 4 3 5 6 5 7 3 1 3 4 3 3 1
13 12 10 8 8 8 6 5 4 5 8 10 9 7 7 7 7 5 5 6 6 5 2 3 5 3 3 3 5 4 0 3 4 1 1 1 3 3 4 6 5 6 6 7 8 8 7 7 7 7 7 7 7 7 6 6 8 8 7 7 7 7 7 6 7 9 7 7 6 2 2 2 3 3 4 4 4 5 3 4 3 2 2 1 1
12 12 12 11 10 10 8 7 9 9 6 4 6 7 7 7 7 6 4 3 3 3 4 4 4 3 1 2 4 5 2 2 2 1 1 2 5 4 4 5 5 5 6 6 7 7 7 7 7 7 7 7 7 7 6 6 6 7 8 9 8 9 7 7 8 8 8 5 6 5 4 3 4 2 2 4 4 3 6 7 6 6 5 0 1
11 11 12 12 11 12 12 12 11 11 8 8 8 8 7 6 5 6 4 3 2 2 3 5 1 4 5 5 7 8 9 8 5 6 6 4 4 6 4 4 5 6 5 6 7 6 7 7 7 7 6 6 6 7 7 7 6 6 7 8 9 9 7 7 6 6 6 6 6 6 6 8 7 6 6 5 5 4 6 5 5 5 5 4 2
9 11 11 13 15 14 14 14 13 13 13 11 8 7 7 7 6 5 4 2 1 0 1 2 5 6 8 5 4 4 6 7 7 7 7 7 6 4 4 4 5 5 6 6 5 5 6 6 7 7 6 6 6 5 6 6 6 6 6 6 7 7 6 6 6 7 8 6 6 6 6 6 5 6 7 7 7 6 8 8 6 4 3 2 2
11 10 10 9 9 11 12 12 13 13 12 13 13 10 8 7 7 7 7 5 1 0 1 1 1 5 4 2 5 6 8 9 9 7 7 6 5 6 5 6 5 6 6 7 6 7 6 6 6 6 6 6 6 6 6 6 6 6 6 7 7 8 7 8 7 8 9 8 8 6 5 5 6 4 6 7 4 5 7 8 3 3 4 3 2
11 11 11 12 12 12 11 11 11 11 13 12 12 12 11 7 5 5 8 7 6 2 1 1 5 6 3 9 10 7 7 7 7 6 5 6 7 8 7 7 7 8 7 7 6 7 6 6 6 7 6 6 7 7 6 6 6 7 7 7 8 7 7 8 8 8 7 8 6 6 5 6 6 5 6 6 6 7 7 9 8 3 3 3 1
12 11 12 12 12 12 11 11 11 11 12 12 11 12 11 12 10 7 7 7 7 4 0 3 6 9 11 12 10 7 7 5 4 5 6 6 7 8 8 7 7 7 8 6 5 6 6 6 7 6 6 6 6 6 6 6 6 6 6 7 6 6 7 7 7 8 7 7 7 7 6 5 5 5 6 6 6 8 8 9 10 9 4 2 3
12 12 12 14 13 12 11 11 11 11 12 12 13 13 13 12 13 14 11 9 7 6 3 2 5 5 7 9 6 3 4 6 6 6 7 9 9 9 8 8 7 7 5 4 4 5 5 6 5 6 5 6 6 7 7 7 7 7 6 6 7 5 7 8 7 8 8 9 9 7 6 6 5 6 6 6 7 6 7 8 9 10 10 4 1
12 12 12 13 13 13 11 11 11 12 12 13 12 13 13 13 13 12 13 13 10 6 4 3 3 4 6 6 5 3 5 7 7 8 9 8 7 7 7 7 7 6 5 4 4 4 5 5 5 5 5 5 5 6 7 7 7 7 6 6 7 7 7 8 7 7 7 7 6 7 7 6 6 5 5 5 6 6 7 8 9 10 9 8 7
9 10 10 12 12 14 13 12 13 13 13 13 14 12 11 11 12 11 12 12 14 12 7 4 3 3 4 6 5 4 4 6 6 5 4 6 7 6 6 5 7 7 6 4 5 5 5 6 5 5 5 5 6 6 6 6 7 6 7 6 6 7 7 5 6 6 6 6 6 6 6 5 5 6 6 6 6 7 7 8 7 6 8 10 8
10 11 11 11 12 13 12 12 12 12 11 10 11 11 11 12 12 12 12 11 13 12 12 7 5 4 4 4 5 5 5 2 2 0 2 6 8 7 6 7 6 7 7 6 6 6 6 6 6 6 5 6 6 6 7 6 6 6 6 6 6 7 7 7 6 6 6 6 7 8 5 6 6 6 6 5 6 6 7 7 6 6 6 7 9
10 10 10 11 11 12 12 12 12 12 11 10 9 9 12 11 12 12 13 12 14 13 12 12 8 4 3 3 5 6 5 5 4 3 6 8 8 6 6 6 8 8 8 8 7 7 7 7 6 6 6 6 6 5 5 5 6 6 6 6 7 7 7 7 6 5 5 6 8 8 7 6 5 5 5 5 6 6 6 7 7 6 6 5 6
10 10 11 12 12 12 12 12 11 10 9 10 10 11 11 11 13 14 13 13 13 11 12 10 11 8 4 3 4 6 7 6 6 7 7 7 6 5 6 7 6 8 8 7 7 7 7 7 7 7 7 6 6 6 6 6 6 6 6 6 7 7 7 6 6 6 6 6 7 7 7 6 6 7 6 5 5 6 6 6 6 5 6 5 7
9 10 11 11 12 12 12 11 11 12 14 15 14 12 13 13 12 12 12 11 13 11 10 10 10 10 8 5 5 5 5 4 5 7 6 5 5 5 7 7 8 9 8 8 7 6 6 6 6 6 6 6 6 6 7 6 6 6 6 5 6 7 7 6 6 7 7 6 7 7 7 6 6 7 7 6 6 6 7 5 5 6 6 6 5
9 10 9 9 10 11 10 11 10 11 11 12 12 12 12 13 13 12 12 13 12 11 11 10 10 10 10 7 5 6 7 5 6 6 6 5 5 6 6 9 9 7 6 6 6 6 6 6 5 5 5 6 7 7 7 7 7 7 7 7 6 7 7 7 7 7 7 5 6 6 6 5 4 6 6 5 6 6 6 7 7 6 7 6 6
9 9 9 9 10 9 10 11 12 12 11 11 10 10 11 12 12 12 13 15 13 12 12 11 11 12 12 7 6 5 5 6 5 5 6 6 5 6 7 8 7 7 7 6 7 7 7 6 6 5 6 6 6 6 7 7 7 8 8 8 7 7 7 7 7 7 7 7 7 7 7 6 7 7 6 6 5 6 6 6 7 7 7 7 6
10 11 11 10 10 11 11 11 10 10 10 10 10 10 10 12 12 13 12 12 12 11 12 12 11 13 13 11 6 3 5 6 7 6 7 8 7 7 6 7 6 7 6 7 7 8 8 7 7 7 7 7 7 7 7 7 7 7 8 8 7 7 7 7 7 7 8 8 8 8 7 7 8 7 6 6 7 8 6 6 7 7 7 6 5
10 10 11 12 10 10 10 11 10 10 10 9 9 9 10 9 12 12 13 13 12 11 12 11 11 12 11 13 12 5 4 5 6 6 4 5 7 7 7 7 6 7 5 5 7 7 8 8 8 8 8 8 7 7 7 7 7 7 7 7 7 7 7 9 7 8 8 8 9 8 8 8 8 8 7 7 7 8 7 7 7 7 6 6 6
9 10 9 9 10 11 11 11 10 10 10 9 9 10 10 10 12 14 13 12 12 13 13 12 11 12 11 11 11 12 6 5 3 2 3 4 5 5 6 7 7 6 6 6 6 7 6 7 7 7 8 8 8 7 7 6 6 7 7 7 6 7 6 6 7 8 8 8 9 8 8 8 8 7 7 8 8 7 7 8 8 8 6 7 7
8 9 9 9 10 10 10 10 11 11 11 11 10 10 10 11 11 11 12 13 12 13 13 13 13 12 10 10 12 12 11 6 4 2 3 3 4 4 6 6 6 7 6 6 6 7 6 6 6 6 6 6 7 6 6 5 6 6 6 6 6 7 7 6 7 6 6 7 7 7 7 7 7 6 7 7 7 7 6 8 7 6 7 7 7
8 8 7 8 9 9 10 11 11 11 13 13 12 12 12 11 11 11 11 13 13 13 13 14 13 13 12 12 12 12 11 10 5 3 3 3 3 4 4 5 7 6 4 2 2 5 6 5 4 5 5 4 6 6 6 6 6 6 6 6 6 6 6 6 6 6 5 5 5 5 6 6 6 5 5 6 7 7 8 8 6 6 7 7 7
8 8 8 7 8 9 10 11 12 12 13 13 12 13 13 13 12 12 12 12 12 13 14 13 14 13 13 13 13 12 12 12 9 5 4 3 4 5 5 6 6 4 2 2 3 4 6 6 6 5 4 3 3 3 4 7 7 6 6 6 5 6 6 6 5 5 4 4 4 4 4 6 7 8 7 6 3 3 3 3 3 7 7 4 5
7 8 9 9 9 9 10 11 11 12 12 11 11 11 11 12 12 12 11 11 10 11 11 13 14 14 13 13 12 12 12 11 11 8 5 4 4 4 4 4 3 2 2 2 3 5 5 6 6 6 5 4 3 2 2 2 6 7 6 6 7 6 6 6 6 6 6 5 4 4 5 7 7 7 7 8 7 6 3 3 8 11 11 12 10
7 8 8 9 10 10 10 10 11 11 11 10 10 10 10 11 11 11 11 9 10 11 11 11 12 13 14 13 12 11 10 10 9 11 8 5 3 3 2 2 3 2 2 2 2 2 4 5 5 5 4 3 3 4 4 3 3 6 6 6 6 6 6 6 6 6 6 6 5 5 4 3 5 7 7 7 8 9 9 9 8 6 2 2 1
7 7 8 8 8 8 8 9 9 9 10 10 9 10 11 10 11 10 10 11 11 11 11 12 12 12 13 13 12 12 12 10 10 8 9 7 3 3 2 2 2 2 4 4 3 3 3 4 5 6 4 3 3 5 5 3 2 4 7 5 4 5 7 7 6 6 6 6 6 5 4 3 3 9 7 7 8 9 12 14 13 13 12 9 7
6 6 7 7 7 7 8 7 7 8 8 8 7 8 9 9 9 9 10 10 11 11 11 12 13 13 12 12 12 12 10 11 10 9 9 9 6 3 4 3 3 4 5 6 6 6 4 4 5 6 5 4 3 6 4 1 2 6 9 7 5 7 6 6 6 6 6 6 6 6 6 4 4 5 6 8 8 8 8 8 9 8 8 10 12
7 8 7 6 5 6 8 8 8 7 7 8 9 9 8 9 10 11 11 11 11 11 12 12 13 14 13 13 13 12 12 12 11 10 10 10 8 9 9 8 7 5 5 6 6 6 5 4 5 5 6 6 5 7 6 7 6 8 12 9 7 7 7 7 6 5 5 5 5 5 6 7 5 5 5 8 9 9 9 8 9 9 8 8 9
6 6 6 5 6 6 5 6 5 7 8 7 8 8 8 9 8 10 10 11 11 12 13 13 13 14 14 13 12 12 12 12 12 11 11 9 9 10 9 8 7 7 6 5 6 7 6 6 6 5 6 7 7 10 9 10 10 10 11 8 8 8 8 7 6 5 5 5 4 6 7 6 6 7 8 11 12 10 12 13 13 10 8 7 9
6 5 5 5 6 6 6 5 6 6 7 8 7 7 8 8 10 10 10 11 11 12 13 13 13 13 13 13 13 12 12 13 12 12 11 11 11 11 10 8 9 8 8 8 6 7 6 6 7 6 7 6 6 10 9 9 9 9 8 8 7 7 6 8 6 6 5 5 4 5 6 6 7 7 9 13 11 11 9 10 10 10 9 9 8
6 7 7 8 7 7 6 6 7 8 7 6 6 7 7 9 9 10 10 11 12 13 12 12 12 12 12 12 12 13 12 12 11 11 10 9 9 9 10 8 9 9 9 8 7 6 8 8 9 9 7 6 7 9 10 10 11 11 7 7 6 7 7 6 6 6 5 5 6 9 6 6 7 6 9 11 10 11 10 9 10 10 9 9 6
5 5 7 7 7 5 6 7 8 9 9 7 7 7 8 9 9 9 9 10 11 11 11 11 11 11 11 11 11 12 12 12 11 10 9 9 9 9 8 9 9 9 9 8 8 6 6 9 9 10 13 10 7 8 12 12 12 10 8 6 6 6 8 6 5 6 5 5 6 8 9 6 6 7 10 10 8 9 10 9 9 10 9 8 4
6 6 5 4 5 7 8 8 8 8 7 8 6 7 8 8 9 8 9 9 9 8 8 9 10 11 10 11 10 12 12 12 11 11 10 9 7 8 9 10 10 9 9 9 9 8 7 9 10 12 11 10 9 8 11 14 13 12 10 7 5 8 7 7 5 5 6 6 6 5 7 10 11 12 11 11 7 7 10 8 7 8 10 8 4
6 6 7 7 7 6 7 6 6 7 7 7 6 6 8 8 8 9 10 9 7 6 7 8 9 10 11 11 11 11 12 12 11 9 9 9 8 8 9 10 10 10 9 10 10 9 8 8 12 13 12 12 11 9 10 15 15 14 12 10 7 7 6 6 6 7 6 6 6 6 6 9 11 13 14 14 13 12 9 7 6 7 7 9 7
6 6 7 8 8 9 10 10 8 8 7 7 7 7 7 7 8 10 9 8 7 6 6 7 9 9 10 10 11 11 10 10 10 10 10 10 9 9 8 8 9 10 11 10 9 9 7 7 12 13 13 12 13 16 10 14 16 16 15 13 9 7 6 8 8 7 7 7 6 6 6 9 14 14 14 15 16 15 15 11 11 14 14 11 8
7 8 8 7 8 9 9 8 7 7 7 7 7 8 8 8 10 9 8 7 7 6 5 6 8 9 9 9 10 11 10 9 10 10 10 10 9 10 10 9 9 9 11 11 10 8 6 6 11 12 11 11 10 10 15 11 15 16 16 15 14 10 12 10 10 9 8 7 6 7 7 13 17 18 17 16 15 17 14 11 15 14 13 13 10
6 4 5 6 7 7 7 7 7 7 7 6 7 8 8 9 10 8 8 7 7 6 6 7 7 7 8 8 8 9 9 9 10 9 9 10 9 8 9 9 9 9 8 9 8 6 5 7 11 12 10 10 9 8 12 15 14 17 15 15 15 14 14 10 9 9 8 9 8 7 9 15 17 18 20 19 17 14 11 14 13 14 12 10 7
5 6 6 5 6 7 7 9 7 8 7 6 5 7 8 9 8 7 8 8 7 6 7 7 7 7 7 7 7 8 8 9 8 9 9 9 9 8 9 8 8 8 8 8 7 6 6 5 9 11 10 9 8 8 8 12 17 16 16 15 15 15 14 16 14 9 10 10 12 15 16 15 15 16 17 16 15 14 14 13 13 12 10 6 6
6 8 10 7 7 7 8 9 9 8 8 7 6 5 7 7 7 7 7 7 7 8 8 7 7 6 6 7 8 8 8 8 8 7 7 7 7 7 7 7 7 7 6 7 7 7 7 8 9 9 9 8 8 7 8 8 8 10 13 17 17 17 17 17 14 13 14 16 17 17 17 16 14 11 10 9 9 9 13 14 13 11 6 5 5
7 7 6 7 6 7 8 8 8 8 7 7 6 5 4 5 6 6 6 6 7 8 7 7 7 7 6 7 7 7 7 8 8 7 7 7 7 7 7 7 7 7 7 7 7 7 7 8 9 8 7 7 7 7 7 7 7 6 7 7 10 10 12 13 11 9 10 10 12 13 13 13 13 15 14 11 9 8 9 8 7 7 6 6 6
4 4 4 5 6 6 7 7 8 9 7 6 5 6 6 6 6 7 6 5 6 6 7 6 7 6 6 6 6 7 7 6 7 7 7 7 7 6 6 7 6 5 5 6 6 7 7 7 7 7 7 7 7 7 7 7 6 5 5 6 7 7 6 6 8 8 7 6 7 9 11 7 8 8 7 6 6 7 7 7 6 6 6 7 8
6 6 4 4 4 5 5 5 7 7 7 7 5 5 6 6 6 6 6 6 6 5 6 7 6 5 5 5 5 5 5 6 5 6 6 5 5 5 5 5 5 4 3 3 4 5 4 4 4 4 5 6 5 6 4 3 4 5 5 5 6 6 6 6 7 8 7 5 6 8 7 7 7 7 6 7 7 7 7 7 7 6 6 6 6
3 3 3 5 4 4 5 5 6 6 6 7 7 7 6 6 5 5 5 6 6 7 6 6 6 5 5 5 5 5 5 5 5 5 5 6 6 8 5 4 5 8 11 11 8 5 3 2 3 3 2 3 3 2 3 6 7 9 10 10 8 8 7 7 7 7 6 6 5 6 5 5 5 6 7 7 7 7 6 5 6 6 6 7 7
4 5 6 5 5 4 5 6 7 6 6 6 6 6 7 8 7 5 5 4 5 6 6 6 6 6 6 5 3 4 5 4 4 4 4 5 5 7 10 11 9 9 11 11 11 9 9 6 4 2 2 3 3 4 7 7 8 8 8 8 8 8 8 6 5 6 5 2 3 6 6 6 6 6 7 7 6 6 6 5 4 4 5 6 6
Wind_Direction
261 242 225 224 112 49 38 31 2 346 336 338 343 341 355 22 43 55 92 118 135 161 184 188 178 177 192 193 191 181 182 173 181 189 196 188 161 133 132 224 194 167 170 164 157 168 166 157 156 144 165 178 214 189 153 129 120 119 117 124 127 119 129 135 137 128 122 91 80 76 72 71 96 97 112 117 91 155 137 153 152 120 114 111 114
2 269 316 35 39 35 32 23 1 304 291 294 263 248 250 108 104 94 97 92 158 195 195 203 220 223 243 221 197 184 181 182 180 187 197 179 160 142 144 211 211 171 169 162 153 133 158 160 150 145 151 191 235 286 140 154 164 150 137 110 48 103 95 158 152 136 139 153 137 116 68 72 68 63 75 100 161 155 157 129 125 130 125 122 124
306 327 29 44 47 51 36 24 349 309 298 291 295 309 309 326 98 104 113 118 151 222 265 259 244 245 256 316 230 27 329 216 179 187 196 192 187 168 145 208 200 184 169 159 136 150 169 162 161 154 159 158 192 174 169 173 163 150 156 148 131 103 147 167 170 182 138 131 117 108 138 110 97 81 52 141 125 110 123 134 128 131 124 124 122
330 7 43 64 72 79 67 28 309 300 310 317 334 339 348 347 30 114 127 122 186 198 213 253 236 136 69 88 104 75 54 33 60 148 188 199 203 147 141 201 200 187 175 164 158 167 164 170 180 154 164 181 187 174 180 188 161 157 159 154 136 138 165 177 189 179 153 139 149 183 155 132 127 157 157 180 137 123 116 131 143 133 126 119 86
8 31 62 79 84 82 98 54 333 335 318 326 338 4 11 4 333 204 169 171 175 181 176 159 145 111 100 75 86 83 73 138 198 243 194 202 160 148 150 178 219 209 170 176 181 177 175 178 169 177 181 177 187 170 184 194 170 152 140 155 168 162 166 158 191 181 190 127 133 129 101 175 207 143 141 72 116 137 143 142 102 88 109 132 117
57 65 79 96 104 87 61 33 8 340 357 336 330 348 12 337 351 336 246 200 198 185 163 161 165 159 142 155 172 168 171 171 205 203 192 198 194 142 146 166 190 214 189 188 189 178 179 182 182 179 178 172 180 171 169 183 152 151 181 187 184 184 152 160 173 205 212 161 94 45 173 168 163 155 154 176 35 68 115 126 129 137 131 128 140
63 55 70 78 81 87 83 59 17 7 355 348 359 1 359 4 2 5 346 312 274 246 192 141 170 172 171 196 205 202 199 189 185 198 136 333 172 145 153 167 178 177 194 193 208 203 184 184 184 184 174 157 138 123 186 185 168 172 175 188 152 106 152 166 176 183 181 240 199 269 346 299 152 145 180 117 152 138 98 133 150 141 154 146 147
30 50 58 60 57 86 94 70 42 13 345 354 4 2 0 360 13 19 17 2 346 346 3 339 30 199 211 199 93 337 311 309 231 114 141 196 200 164 158 172 185 186 185 189 200 211 194 191 186 177 171 169 178 187 193 182 156 157 154 151 157 178 196 176 177 170 176 196 179 220 285 301 188 30 145 163 154 159 149 55 86 135 178 135 116
36 36 33 40 48 38 33 35 19 13 21 13 2 351 344 354 360 3 20 38 25 11 332 265 213 170 124 127 162 211 108 306 331 355 95 338 277 171 169 168 185 191 191 192 200 205 196 189 180 179 178 171 181 186 186 175 173 167 162 167 181 188 194 192 165 183 193 188 148 162 84 104 111 30 100 76 138 140 126 155 139 78 97 356 139
24 27 27 28 26 25 19 21 18 21 28 12 356 342 340 337 339 342 6 14 308 312 324 330 24 20 43 227 170 182 170 110 186 148 107 237 240 241 202 179 191 202 207 204 207 202 195 186 181 184 185 174 179 177 172 174 184 184 178 180 186 190 194 179 182 183 194 175 178 148 143 106 84 50 71 106 61 76 156 169 163 152 153 193 155
19 18 23 21 19 21 18 23 20 23 15 7 357 344 331 333 326 327 321 321 351 321 283 283 210 182 212 176 162 166 176 189 179 157 157 215 231 205 214 203 185 205 208 215 214 200 198 189 183 186 186 183 179 168 175 180 188 186 183 181 186 190 187 183 177 180 179 171 170 173 170 168 169 172 182 181 149 140 123 145 156 164 153 136 166
14 21 17 14 13 15 16 16 15 14 12 5 356 350 341 334 334 328 328 35 58 68 316 277 235 208 225 197 163 160 164 189 183 181 174 190 205 235 226 215 208 204 209 220 210 207 205 199 185 182 186 188 187 173 173 183 176 173 182 189 192 194 184 180 176 175 180 182 188 190 182 180 172 172 181 174 171 163 156 160 155 127 95 54 135
18 18 18 16 18 11 10 9 11 12 6 360 354 351 348 340 344 340 325 320 312 170 177 190 163 199 241 282 221 176 187 190 191 186 169 168 166 217 219 230 218 218 207 213 215 207 204 197 183 176 190 197 177 175 185 175 165 175 185 195 193 190 189 185 184 189 184 188 194 190 180 181 195 188 163 172 141 133 138 142 123 129 128 127 117
13 13 14 14 12 11 9 11 11 5 2 358 354 353 349 339 319 315 304 305 310 329 342 221 164 152 186 230 230 197 197 200 202 185 164 160 175 206 204 216 227 224 221 214 202 203 201 195 193 194 189 177 174 181 182 181 171 176 184 195 197 195 187 188 195 194 191 196 177 177 190 194 200 175 170 153 152 138 151 152 145 72 94 124 92
8 7 8 7 6 8 4 4 11 7 358 357 353 354 350 352 341 319 303 298 292 296 269 148 182 185 195 221 227 196 198 203 205 181 164 172 180 199 210 214 226 230 227 218 182 190 194 186 191 196 190 176 170 174 178 178 178 177 186 191 194 187 188 187 196 189 189 188 188 190 191 196 192 185 170 178 163 169 159 156 147 138 81 66 149
6 5 3 4 1 2 2 2 3 1 358 356 355 354 352 349 350 346 333 308 297 292 280 209 210 213 218 233 257 225 189 191 201 183 172 180 193 197 201 205 218 226 217 177 181 184 192 188 187 196 186 174 177 173 175 181 183 185 183 183 193 187 188 191 195 190 195 192 196 182 172 201 192 182 190 175 179 168 159 161 160 155 149 153 182
4 0 360 358 357 360 1 360 358 358 357 356 352 353 349 346 347 342 343 339 325 294 269 244 248 239 235 247 264 241 213 211 207 188 180 187 198 202 200 205 217 222 211 169 168 185 188 186 189 195 191 188 175 177 182 187 187 190 184 179 190 190 189 197 185 192 198 192 189 179 190 187 192 188 188 177 170 163 169 171 172 167 167 144 164
4 3 1 357 356 357 359 358 358 356 352 354 353 348 347 345 344 345 341 336 341 335 313 296 274 247 251 257 246 233 232 227 221 200 175 190 203 203 192 197 214 215 204 181 162 178 179 191 177 194 203 198 183 180 184 187 184 190 188 188 185 177 192 191 196 191 188 181 190 180 184 180 180 180 190 172 168 171 168 177 182 176 161 161 166
7 3 1 1 360 357 356 355 355 357 356 355 348 345 342 346 344 345 337 335 339 338 337 311 278 258 233 222 220 221 226 271 337 352 166 212 212 199 189 202 214 211 200 183 171 176 179 182 180 190 196 198 185 185 182 176 179 179 179 186 170 169 184 193 196 191 187 179 186 194 181 180 172 183 175 167 168 166 174 174 174 159 187 168 165
7 5 4 2 359 356 357 355 354 355 355 351 341 342 354 347 343 338 332 335 339 342 339 335 319 274 236 193 200 204 200 187 184 205 216 221 213 194 195 203 212 210 205 183 173 176 179 183 185 185 189 185 183 181 176 169 174 185 179 181 170 167 177 190 187 189 182 188 189 195 190 183 164 159 165 170 169 171 166 170 173 174 175 162 154
8 6 2 2 356 353 354 354 352 352 353 353 355 355 350 349 347 344 338 336 331 327 337 332 327 317 268 218 197 210 212 207 185 183 211 217 210 192 201 209 205 214 201 178 175 180 182 184 180 184 184 180 179 174 186 172 182 186 185 181 169 171 181 188 176 187 186 186 190 197 195 190 156 162 166 160 164 160 159 171 168 162 168 156 160
4 0 3 1 353 350 351 351 353 358 360 360 357 352 353 352 346 340 339 334 330 323 326 323 322 322 309 260 223 210 239 227 196 189 194 202 204 200 205 204 207 213 195 180 177 176 173 174 182 185 177 172 175 179 178 178 186 191 187 182 173 173 183 183 182 191 189 188 192 198 198 182 179 157 154 164 167 161 166 155 175 173 180 173 180
358 355 356 357 353 350 346 348 352 358 357 356 356 357 350 343 342 341 338 330 325 322 322 321 324 323 315 275 234 213 217 207 202 197 192 197 204 208 205 207 204 196 186 169 164 164 162 164 174 169 165 177 185 179 174 174 182 188 190 194 185 180 184 184 185 191 191 181 191 200 198 174 132 162 170 162 161 173 168 173 179 180 188 182 183
4 359 358 358 356 351 351 355 357 358 357 356 352 351 351 350 344 339 338 332 332 332 327 326 329 331 324 293 250 216 207 202 204 202 193 195 213 218 213 216 200 181 181 169 156 153 150 155 165 168 175 185 189 180 173 179 180 184 192 194 193 192 188 186 184 184 188 185 197 198 198 169 163 175 169 161 167 161 171 181 187 186 190 184 185
6 4 359 356 356 359 358 354 355 353 354 352 352 352 353 351 350 345 335 332 330 331 332 331 333 336 339 328 278 249 204 202 202 202 195 181 192 216 229 230 210 199 193 168 153 143 144 158 171 179 177 185 192 186 178 181 184 191 191 191 194 196 193 188 187 187 191 194 198 202 188 165 166 173 168 170 172 174 174 173 186 185 192 187 172
7 1 360 360 357 354 355 356 353 353 353 350 349 351 351 350 357 352 343 341 339 339 338 332 336 338 337 342 333 288 253 212 206 209 210 198 186 198 219 235 221 210 190 185 159 148 149 162 177 179 177 181 181 186 189 187 184 185 191 192 189 195 200 199 194 192 199 195 199 199 191 177 175 174 179 175 176 181 172 180 183 180 189 174 185
8 5 359 352 357 357 354 353 354 354 353 351 350 351 354 354 359 0 355 349 347 346 346 345 341 341 338 336 338 332 285 267 243 208 197 205 195 193 211 228 234 220 193 182 166 148 152 162 180 173 175 177 176 180 186 185 184 183 186 186 184 188 193 198 198 196 200 199 200 200 196 188 186 186 174 176 175 182 180 189 188 183 177 167 187
12 7 1 359 354 352 354 353 356 355 352 354 353 355 356 357 356 356 356 357 354 352 349 346 345 343 340 336 334 329 323 287 260 221 196 206 184 188 216 226 229 220 210 197 173 159 153 162 175 179 177 171 166 165 168 178 186 190 186 189 188 188 192 197 200 198 197 198 194 190 192 190 194 185 177 179 177 179 186 191 193 179 173 175 186
9 2 357 355 356 353 353 355 357 356 358 355 355 354 356 358 360 358 356 1 356 356 355 352 348 349 345 337 334 332 327 320 281 234 203 204 204 190 209 222 230 228 224 231 148 133 135 138 130 143 148 154 166 170 169 174 183 191 190 191 189 191 192 193 202 201 198 197 195 190 189 187 197 179 180 184 196 190 181 192 194 177 179 192 181
5 356 354 354 354 355 355 357 359 1 357 358 355 355 354 355 355 354 357 357 359 2 359 356 354 348 344 345 341 338 336 328 320 295 262 220 202 198 200 214 226 222 186 145 134 125 140 148 144 127 126 135 150 142 157 174 189 188 189 189 179 189 191 191 189 188 185 177 169 157 173 173 162 149 138 128 150 231 247 257 192 167 154 141 189
6 358 358 358 357 357 357 359 359 358 357 356 353 348 349 352 349 352 354 353 355 356 358 1 357 351 347 348 348 344 343 344 335 315 297 265 233 209 202 211 222 209 167 157 141 147 144 141 148 156 156 147 124 79 61 211 216 214 192 184 183 184 179 179 185 181 171 157 135 136 143 147 134 112 112 117 119 122 140 182 181 194 191 185 184
11 5 3 1 359 357 359 357 354 355 354 357 350 346 350 349 345 348 347 348 1 2 2 2 358 353 353 352 349 339 338 342 346 340 318 284 274 244 216 192 173 146 98 88 110 124 125 126 128 133 136 122 107 40 17 331 275 237 222 197 184 172 171 174 180 177 162 154 138 129 124 118 139 145 130 111 97 98 106 103 98 88 41 2 178
13 12 9 2 359 354 353 353 355 354 353 350 346 349 351 344 344 342 343 354 360 6 3 6 3 1 357 353 350 351 344 340 339 331 337 318 282 255 208 160 160 125 101 90 64 67 82 97 115 124 104 67 76 22 11 346 287 229 221 210 153 154 161 168 155 141 150 146 143 126 114 109 141 139 123 113 111 96 89 88 84 77 62 61 67
15 13 17 359 358 355 353 355 355 351 353 341 350 353 343 342 345 345 356 354 360 3 8 7 6 6 2 357 353 355 353 348 343 335 355 354 343 9 29 37 66 73 85 81 70 60 44 69 92 107 101 59 48 353 340 60 180 180 168 148 128 125 120 119 125 126 132 143 153 145 136 132 121 118 122 118 108 98 91 70 57 49 54 40 40
8 9 7 356 355 357 359 1 356 352 349 353 351 351 342 351 353 356 357 359 359 1 7 8 8 6 5 2 359 358 360 357 358 358 15 21 25 27 24 13 17 35 59 76 82 75 52 44 51 79 92 60 27 4 67 93 108 133 122 112 108 94 93 86 82 90 101 117 134 137 137 137 134 125 119 127 117 109 96 83 67 54 47 48 40
5 2 352 349 355 357 359 353 344 360 353 357 349 341 354 348 347 360 356 1 1 5 5 5 8 7 6 4 1 0 2 4 5 14 23 26 25 24 24 19 26 27 29 63 68 71 62 48 35 44 69 58 29 25 63 82 96 108 106 108 107 100 100 93 86 81 84 77 103 131 137 130 128 121 119 119 122 120 107 100 93 79 61 50 54
360 354 346 351 355 2 357 357 0 5 1 352 342 353 357 352 357 356 357 1 6 9 5 3 5 4 5 5 5 4 6 8 10 19 26 30 31 27 28 26 34 26 25 22 46 70 69 60 49 46 56 52 39 18 44 68 81 95 108 111 105 101 95 95 84 84 86 89 87 104 112 127 122 121 128 128 131 118 103 103 101 101 96 80 67
0 359 4 3 357 351 356 9 3 2 357 345 351 2 6 6 360 356 0 359 7 9 4 3 3 1 3 5 7 10 9 11 12 17 26 34 36 40 39 33 39 32 28 15 358 39 67 65 63 56 47 61 48 30 44 58 76 82 99 110 115 107 98 91 91 64 64 68 70 83 105 109 117 118 130 125 133 120 109 114 116 113 104 94 84
4 2 356 348 346 342 353 3 4 0 347 352 354 4 19 12 4 359 1 2 3 1 2 2 359 359 3 7 9 11 13 14 17 14 10 26 43 49 51 48 43 37 30 10 7 353 59 68 64 60 55 55 52 40 49 65 70 80 91 97 102 110 105 98 93 82 60 67 60 46 58 76 94 114 119 129 140 127 121 129 129 112 106 101 114
358 4 356 341 349 1 1 1 1 349 344 354 352 8 17 14 5 3 5 1 356 349 349 358 3 3 3 9 13 14 16 17 17 16 12 11 17 49 52 58 55 50 43 31 16 357 7 70 70 61 47 42 47 41 41 62 68 72 83 97 97 106 106 108 97 88 84 50 41 52 54 64 90 94 94 92 86 107 123 130 124 114 118 114 159
356 353 356 1 349 352 352 351 349 348 356 352 355 9 13 8 6 7 357 343 334 343 356 2 5 8 8 10 14 17 16 16 17 18 20 23 16 22 52 59 58 53 50 47 37 13 352 36 69 68 59 45 35 36 38 57 65 66 66 83 89 89 99 97 93 83 68 68 45 39 34 46 78 88 91 88 86 77 79 82 75 98 94 127 130
355 356 10 358 349 350 347 347 348 354 357 357 354 7 10 7 9 1 341 326 335 354 358 8 13 12 11 11 14 15 19 17 17 18 25 30 23 25 24 39 60 64 59 46 38 38 359 8 57 62 58 53 39 33 36 43 62 69 68 68 76 70 85 103 92 81 73 61 56 48 40 39 54 61 70 82 85 85 83 76 77 91 101 106 97
347 345 349 357 346 343 335 331 338 354 1 1 2 5 8 9 9 344 329 332 339 353 4 14 18 16 11 13 14 18 20 18 16 16 29 36 29 25 26 26 28 48 67 63 44 31 2 9 52 53 49 47 39 35 35 42 50 63 68 72 78 85 81 79 86 77 67 73 61 63 59 62 68 63 56 52 60 74 74 83 89 87 88 90 92
333 330 334 344 339 332 328 334 352 357 360 6 14 7 6 10 356 332 334 342 349 351 6 20 22 17 11 12 14 17 22 22 19 14 25 33 29 28 35 29 31 33 33 52 51 42 14 23 51 56 44 40 36 35 32 38 47 52 61 68 73 78 82 85 83 88 87 84 79 68 76 77 78 79 79 72 56 52 74 81 82 83 78 75 78
323 319 333 344 343 333 341 348 355 359 357 4 19 18 8 2 336 338 346 347 346 356 16 14 16 20 18 7 18 20 17 18 20 22 25 17 17 21 35 30 34 36 42 44 35 38 45 29 51 60 54 45 34 30 33 31 39 52 59 66 73 76 81 88 89 88 91 95 99 93 85 79 75 74 74 75 75 72 71 72 76 78 79 74 76
340 348 351 345 347 356 2 355 346 359 353 357 359 25 15 332 325 349 347 349 2 13 16 9 10 19 18 20 25 18 18 18 16 21 28 25 20 13 31 35 36 36 35 43 39 35 34 37 45 46 47 48 41 37 33 29 28 43 58 67 72 73 74 73 79 89 94 93 90 85 78 72 67 67 67 67 72 70 71 68 66 65 63 68 69
338 333 345 352 359 360 356 353 349 346 352 346 347 356 357 337 349 346 349 353 20 22 18 13 11 7 15 25 35 20 17 18 18 15 21 25 25 24 25 24 25 31 33 29 31 33 36 38 41 37 38 37 43 38 33 30 21 38 49 60 71 75 79 86 86 79 77 81 83 88 91 86 84 75 72 70 67 59 58 52 51 54 58 59 55
328 326 357 4 7 357 351 353 351 343 342 337 345 348 341 345 352 357 350 5 32 24 21 14 9 6 13 17 27 27 31 29 24 25 20 13 16 23 34 28 18 6 19 41 36 35 36 36 37 32 27 29 33 32 28 19 13 23 54 63 69 68 65 71 80 78 74 73 85 88 84 86 86 76 71 63 57 58 55 53 47 47 51 57 67
341 344 4 11 346 346 341 346 345 340 343 343 345 348 343 348 345 355 360 8 17 21 32 21 8 12 13 6 20 27 30 31 31 38 44 34 16 2 12 33 29 21 18 27 65 56 46 44 55 46 51 38 27 33 18 348 30 39 45 69 75 79 81 76 78 89 82 61 61 66 75 74 79 93 86 78 71 68 57 50 49 49 50 53 51
327 315 359 360 356 343 339 349 345 345 348 351 341 343 341 339 344 360 11 18 2 16 22 17 1 5 355 5 18 23 20 24 29 37 39 44 43 47 36 37 21 24 49 55 68 64 38 12 68 41 4 54 58 18 342 33 48 55 58 61 63 69 77 94 94 84 86 77 73 80 71 86 83 87 83 74 68 66 68 55 49 49 49 59 62
349 9 351 349 332 344 360 358 344 340 348 348 342 343 347 346 347 348 15 13 10 20 10 4 7 5 355 341 354 26 21 23 16 18 35 51 39 32 39 45 52 49 48 44 46 48 47 49 79 88 41 69 61 29 30 24 35 48 65 70 76 90 95 69 40 63 34 73 106 90 81 70 69 71 74 74 74 75 73 75 56 46 45 58 63